QPF
0.00 0.00 0.00 0.00 0.00 0.00 0.00 0.00 0.00 0.00 0.00 0.00 0.00 0.00 0.00 0.00 0.00 0.00 0.00 0.00 0.00 0.00 0.00 0.00 0.00 0.00 0.00 0.00 0.00 0.00 0.00 0.00 0.00 0.00 0.00 0.00 0.00 0.00
0.00 0.00 0.00 0.00 0.00 0.00 0.00 0.00 0.00 0.00 0.00 0.00 0.00 0.00 0.00 0.00 0.00 0.00 0.00 0.00 0.00 0.00 0.00 0.00 0.00 0.00 0.00 0.00 0.00 0.00 0.00 0.00 0.00 0.00 0.00 0.00 0.00 0.00
0.00 0.00 0.00 0.00 0.00 0.00 0.00 0.00 0.00 0.00 0.00 0.00 0.00 0.00 0.00 0.00 0.00 0.00 0.00 0.00 0.00 0.00 0.00 0.00 0.00 0.00 0.00 0.00 0.00 0.00 0.00 0.00 0.00 0.00 0.00 0.00 0.00 0.00
0.00 0.00 0.00 0.00 0.00 0.00 0.00 0.00 0.00 0.00 0.00 0.00 0.00 0.00 0.00 0.00 0.00 0.00 0.00 0.00 0.00 0.00 0.00 0.00 0.00 0.00 0.00 0.00 0.00 0.00 0.00 0.00 0.00 0.00 0.00 0.00 0.00 0.00
0.00 0.00 0.00 0.00 0.00 0.00 0.00 0.00 0.00 0.00 0.00 0.00 0.00 0.00 0.00 0.00 0.00 0.00 0.00 0.00 0.00 0.00 0.00 0.00 0.00 0.00 0.00 0.00 0.00 0.00 0.00 0.00 0.00 0.00 0.00 0.00 0.00 0.00
0.00 0.00 0.00 0.00 0.00 0.00 0.00 0.00 0.00 0.00 0.00 0.00 0.00 0.00 0.00 0.00 0.00 0.00 0.00 0.00 0.00 0.00 0.00 0.00 0.00 0.00 0.00 0.00 0.00 0.00 0.00 0.00 0.00 0.00 0.00 0.00 0.00 0.00
0.00 0.00 0.00 0.00 0.00 0.00 0.00 0.00 0.00 0.00 0.00 0.00 0.00 0.00 0.00 0.00 0.00 0.00 0.00 0.00 0.00 0.00 0.00 0.00 0.00 0.00 0.00 0.00 0.00 0.00 0.00 0.00 0.00 0.00 0.00 0.00 0.00 0.00
0.00 0.00 0.00 0.00 0.00 0.00 0.00 0.00 0.00 0.00 0.00 0.00 0.00 0.00 0.00 0.00 0.00 0.00 0.00 0.00 0.00 0.00 0.00 0.00 0.00 0.00 0.00 0.00 0.00 0.00 0.00 0.00 0.00 0.00 0.00 0.00 0.00 0.00
0.00 0.00 0.00 0.00 0.00 0.00 0.00 0.00 0.00 0.00 0.00 0.00 0.00 0.00 0.00 0.00 0.00 0.00 0.00 0.00 0.00 0.00 0.00 0.00 0.00 0.00 0.00 0.00 0.00 0.00 0.00 0.00 0.00 0.00 0.00 0.00 0.00 0.00
0.00 0.00 0.00 0.00 0.00 0.00 0.00 0.00 0.00 0.00 0.00 0.00 0.00 0.00 0.00 0.00 0.00 0.00 0.00 0.00 0.00 0.00 0.00 0.00 0.00 0.00 0.00 0.00 0.00 0.00 0.00 0.00 0.00 0.00 0.00 0.00 0.00 0.00
0.00 0.00 0.00 0.00 0.00 0.00 0.00 0.00 0.00 0.00 0.00 0.00 0.00 0.00 0.00 0.01 0.01 0.01 0.00 0.00 0.00 0.00 0.00 0.00 0.00 0.00 0.00 0.00 0.00 0.00 0.00 0.00 0.00 0.00 0.00 0.00 0.00 0.00
0.00 0.00 0.00 0.00 0.00 0.00 0.00 0.00 0.00 0.00 0.00 0.00 0.00 0.00 0.00 0.00 0.00 0.00 0.00 0.00 0.00 0.00 0.00 0.00 0.00 0.00 0.00 0.00 0.00 0.00 0.00 0.00 0.00 0.00 0.00 0.00 0.00 0.00
0.00 0.00 0.00 0.00 0.00 0.00 0.00 0.00 0.00 0.00 0.00 0.00 0.00 0.00 0.00 0.00 0.00 0.00 0.00 0.00 0.00 0.00 0.00 0.00 0.00 0.00 0.00 0.00 0.00 0.00 0.00 0.00 0.00 0.00 0.00 0.00 0.00 0.00
0.00 0.00 0.00 0.00 0.00 0.00 0.00 0.00 0.01 0.01 0.00 0.00 0.00 0.00 0.00 0.00 0.00 0.00 0.00 0.00 0.00 0.00 0.00 0.00 0.00 0.00 0.00 0.00 0.00 0.00 0.00 0.00 0.00 0.00 0.00 0.00 0.00 0.00
0.00 0.00 0.00 0.00 0.00 0.00 0.00 0.00 0.00 0.00 0.00 0.00 0.00 0.00 0.00 0.00 0.00 0.00 0.00 0.00 0.00 0.01 0.00 0.01 0.00 0.00 0.00 0.00 0.00 0.00 0.00 0.00 0.00 0.00 0.00 0.00 0.00 0.00
0.00 0.00 0.00 0.00 0.00 0.00 0.00 0.00 0.00 0.00 0.01 0.01 0.00 0.00 0.00 0.00 0.00 0.00 0.00 0.00 0.00 0.00 0.00 0.00 0.00 0.00 0.01 0.00 0.00 0.00 0.00 0.00 0.00 0.00 0.00 0.00 0.00 0.00
0.02 0.01 0.00 0.00 0.00 0.00 0.00 0.00 0.00 0.00 0.00 0.00 0.00 0.00 0.00 0.00 0.00 0.00 0.00 0.00 0.00 0.00 0.00 0.00 0.00 0.00 0.00 0.00 0.00 0.00 0.00 0.00 0.00 0.00 0.00 0.00 0.00 0.00
0.02 0.01 0.00 0.00 0.00 0.00 0.00 0.00 0.00 0.00 0.00 0.00 0.00 0.00 0.00 0.00 0.00 0.00 0.00 0.00 0.00 0.00 0.00 0.00 0.00 0.00 0.00 0.00 0.00 0.00 0.00 0.00 0.00 0.00 0.00 0.00 0.00 0.00
0.01 0.00 0.00 0.00 0.00 0.00 0.00 0.00 0.00 0.00 0.00 0.00 0.00 0.00 0.00 0.00 0.00 0.00 0.00 0.00 0.00 0.00 0.00 0.00 0.00 0.00 0.00 0.00 0.00 0.00 0.00 0.00 0.00 0.00 0.00 0.00 0.00 0.00
0.00 0.00 0.00 0.00 0.00 0.00 0.00 0.00 0.00 0.00 0.00 0.00 0.00 0.00 0.00 0.00 0.00 0.00 0.00 0.00 0.00 0.00 0.00 0.00 0.00 0.00 0.00 0.00 0.00 0.00 0.00 0.00 0.00 0.00 0.00 0.00 0.00 0.00
0.00 0.00 0.00 0.00 0.00 0.00 0.00 0.00 0.00 0.00 0.00 0.00 0.00 0.00 0.00 0.00 0.00 0.00 0.00 0.00 0.01 0.00 0.00 0.00 0.00 0.00 0.00 0.00 0.00 0.00 0.00 0.00 0.00 0.00 0.00 0.00 0.00 0.00
0.00 0.00 0.00 0.00 0.00 0.00 0.00 0.00 0.00 0.00 0.00 0.00 0.00 0.00 0.00 0.00 0.00 0.00 0.00 0.00 0.00 0.00 0.00 0.00 0.00 0.00 0.00 0.00 0.00 0.00 0.00 0.00 0.00 0.00 0.00 0.00 0.00 0.00
0.00 0.00 0.00 0.00 0.00 0.00 0.00 0.00 0.00 0.00 0.00 0.00 0.00 0.00 0.00 0.00 0.00 0.00 0.00 0.00 0.00 0.00 0.00 0.00 0.00 0.00 0.00 0.00 0.00 0.00 0.00 0.00 0.00 0.00 0.00 0.00 0.00 0.00
MSLP
1020.53 1020.50 1020.50 1020.36 1020.42 1020.52 1020.64 1020.82 1021.10 1021.19 1020.32 1018.89 1018.50 1017.86 1017.89 1017.73 1017.35 1017.19 1017.17 1017.05 1016.91 1016.78 1016.58 1016.31 1016.17 1016.10 1015.99 1015.84 1015.76 1015.64 1015.46 1015.35 1015.16 1014.98 1014.51 1014.42 1014.44 1014.17
1020.29 1020.24 1020.16 1020.07 1020.06 1020.13 1020.24 1020.33 1020.51 1020.74 1020.70 1019.27 1018.60 1018.17 1017.72 1017.47 1017.21 1017.00 1016.78 1016.62 1016.53 1016.40 1016.28 1016.19 1016.00 1015.75 1015.64 1015.52 1015.37 1015.22 1015.17 1015.18 1015.16 1014.86 1014.56 1014.57 1014.60 1014.41
1020.00 1019.91 1019.77 1019.75 1019.72 1019.74 1019.81 1019.92 1020.08 1020.19 1020.13 1018.86 1018.45 1018.02 1017.75 1017.49 1017.12 1016.85 1016.64 1016.46 1016.26 1016.06 1015.85 1015.68 1015.75 1015.69 1015.45 1015.24 1015.10 1015.01 1015.02 1014.95 1014.93 1014.93 1014.86 1014.72 1014.82 1014.67
1019.88 1019.80 1019.57 1019.42 1019.38 1019.35 1019.44 1019.51 1019.52 1019.40 1019.61 1019.14 1018.37 1018.02 1017.68 1017.22 1016.98 1016.75 1016.33 1016.01 1015.92 1015.71 1015.53 1015.32 1015.18 1015.21 1015.17 1015.09 1014.96 1014.92 1014.79 1014.76 1014.77 1014.62 1014.61 1014.93 1014.86 1014.65
1019.74 1019.61 1019.41 1019.24 1019.23 1019.06 1019.00 1019.04 1018.89 1018.66 1018.74 1018.66 1018.21 1017.63 1017.16 1016.92 1016.76 1016.49 1016.24 1016.00 1015.60 1015.24 1015.02 1014.88 1014.89 1014.70 1014.67 1014.60 1014.57 1014.71 1014.74 1014.73 1014.77 1015.01 1014.98 1015.00 1014.96 1014.80
1019.69 1019.51 1019.25 1019.02 1018.85 1018.66 1018.53 1018.46 1018.27 1018.26 1018.17 1018.07 1017.78 1017.50 1017.10 1016.61 1016.59 1016.58 1016.17 1015.79 1015.42 1014.88 1014.60 1014.49 1014.48 1014.38 1014.21 1014.21 1014.23 1014.28 1014.42 1014.63 1014.74 1014.63 1014.63 1014.72 1014.63 1014.63
1019.55 1019.32 1019.05 1018.82 1018.61 1018.32 1018.03 1017.87 1017.86 1017.74 1017.69 1017.59 1017.36 1017.15 1016.87 1016.58 1016.48 1016.02 1015.95 1015.56 1015.13 1014.90 1014.61 1014.34 1014.25 1014.19 1013.98 1013.82 1013.95 1013.99 1014.09 1014.17 1014.36 1014.55 1014.57 1014.42 1014.49 1014.57
1019.73 1019.33 1019.03 1018.72 1018.30 1018.03 1017.74 1017.53 1017.43 1017.10 1017.00 1017.05 1016.89 1016.72 1016.45 1016.25 1015.92 1015.65 1015.50 1015.53 1015.21 1014.27 1014.44 1014.04 1013.87 1013.74 1013.65 1013.72 1013.47 1013.62 1013.66 1013.90 1014.01 1014.15 1014.31 1014.43 1014.51 1014.51
1019.42 1019.14 1018.82 1018.40 1018.05 1017.78 1017.51 1017.26 1017.05 1016.83 1016.61 1016.44 1016.10 1015.95 1015.72 1015.73 1015.51 1015.28 1015.07 1014.78 1014.31 1014.02 1014.20 1013.96 1013.61 1013.55 1013.07 1013.01 1013.07 1013.14 1013.34 1013.49 1013.74 1013.80 1013.95 1014.08 1014.19 1014.29
1018.90 1018.66 1018.43 1018.12 1017.77 1017.46 1017.14 1016.95 1016.61 1016.32 1016.13 1015.90 1015.53 1015.26 1015.17 1015.04 1014.82 1014.54 1014.27 1014.11 1013.73 1013.36 1013.45 1013.53 1013.30 1013.15 1012.74 1012.39 1012.38 1012.50 1012.86 1013.17 1013.40 1013.61 1013.75 1013.85 1014.02 1014.13
1018.19 1017.99 1017.85 1017.55 1017.28 1016.95 1016.59 1016.46 1016.19 1015.82 1015.45 1015.22 1015.06 1014.83 1014.61 1014.34 1014.04 1013.87 1013.61 1013.64 1013.13 1012.97 1012.89 1012.73 1012.80 1012.83 1012.82 1012.26 1012.09 1012.07 1012.34 1012.54 1012.83 1013.19 1013.35 1013.63 1013.87 1014.18
1017.68 1017.39 1017.22 1017.01 1016.73 1016.43 1016.12 1015.96 1015.70 1015.30 1015.09 1014.79 1014.64 1014.31 1014.12 1013.93 1013.73 1013.74 1013.40 1012.95 1012.98 1012.44 1012.05 1012.44 1012.38 1012.51 1012.77 1012.19 1011.96 1012.06 1012.15 1012.24 1012.50 1012.71 1012.93 1013.39 1013.73 1014.14
1017.32 1016.98 1016.61 1016.42 1016.23 1015.95 1015.68 1015.44 1015.23 1014.89 1014.55 1014.36 1014.17 1013.85 1013.51 1013.35 1013.05 1012.88 1012.75 1012.80 1012.19 1011.94 1011.58 1011.41 1011.77 1011.80 1012.01 1012.35 1012.14 1012.07 1012.24 1012.25 1012.38 1012.51 1012.87 1013.17 1013.50 1013.87
1016.76 1016.41 1016.14 1015.96 1015.71 1015.41 1015.18 1014.89 1014.61 1014.37 1014.18 1014.04 1013.80 1013.49 1013.17 1012.86 1012.42 1012.23 1012.13 1011.90 1011.58 1011.06 1011.02 1011.17 1011.22 1011.28 1011.53 1012.17 1012.24 1012.20 1012.32 1012.39 1012.48 1012.78 1012.92 1013.10 1013.20 1013.44
1016.36 1016.06 1015.70 1015.40 1015.13 1014.87 1014.76 1014.51 1014.15 1014.00 1013.89 1013.68 1013.34 1012.90 1012.55 1012.05 1011.80 1011.71 1011.54 1011.35 1010.99 1010.34 1010.03 1010.05 1010.56 1010.74 1011.08 1011.41 1011.91 1012.15 1012.41 1012.55 1012.57 1012.81 1013.11 1013.13 1013.25 1013.41
1015.83 1015.52 1015.25 1014.92 1014.67 1014.42 1014.17 1014.02 1013.81 1013.58 1013.36 1013.15 1012.82 1012.21 1011.83 1011.70 1011.42 1011.28 1011.18 1010.95 1010.60 1009.99 1009.49 1009.51 1009.90 1009.93 1010.49 1010.94 1010.95 1011.67 1011.87 1012.32 1012.45 1012.67 1012.99 1013.26 1013.30 1013.40
1015.11 1014.95 1014.82 1014.65 1014.40 1014.09 1013.80 1013.58 1013.31 1013.08 1012.90 1012.55 1012.32 1012.00 1011.61 1011.23 1010.91 1010.57 1010.49 1010.47 1010.29 1009.85 1009.35 1009.65 1009.83 1009.82 1010.11 1010.35 1010.71 1011.08 1011.53 1011.90 1011.99 1012.31 1012.55 1012.68 1012.94 1013.13
1014.46 1014.55 1014.43 1014.24 1014.03 1013.68 1013.35 1013.07 1012.88 1012.65 1012.36 1012.13 1011.92 1011.67 1011.35 1010.99 1010.62 1010.46 1010.08 1009.93 1009.85 1009.55 1009.44 1009.52 1009.87 1010.19 1010.44 1010.37 1010.40 1010.67 1011.03 1011.32 1011.54 1011.82 1012.02 1012.11 1012.02 1012.22
1014.41 1014.30 1014.09 1013.80 1013.47 1013.18 1012.90 1012.67 1012.45 1012.15 1011.79 1011.76 1011.56 1011.29 1011.02 1010.71 1010.36 1009.99 1009.63 1009.45 1009.35 1009.13 1009.07 1009.14 1009.35 1009.64 1010.07 1010.00 1009.69 1009.85 1010.42 1010.75 1011.12 1011.37 1011.43 1011.64 1011.53 1011.46
1014.21 1013.97 1013.60 1013.26 1012.96 1012.72 1012.47 1012.23 1011.88 1011.71 1011.61 1011.38 1011.14 1010.90 1010.63 1010.39 1009.97 1009.56 1009.27 1009.10 1008.82 1008.73 1008.84 1008.85 1008.85 1008.95 1009.38 1009.60 1009.81 1009.62 1009.49 1010.30 1010.70 1010.86 1011.09 1011.20 1011.13 1010.93
1013.70 1013.45 1013.13 1012.80 1012.51 1012.26 1011.95 1011.66 1011.41 1011.16 1010.93 1010.83 1010.71 1010.54 1010.27 1009.99 1009.69 1009.21 1008.92 1008.60 1008.27 1008.11 1008.02 1008.11 1008.05 1008.25 1008.90 1009.30 1009.87 1009.87 1009.56 1009.48 1009.72 1010.29 1010.55 1010.80 1010.93 1010.67
1013.24 1012.87 1012.48 1012.19 1011.93 1011.66 1011.36 1011.09 1010.85 1010.69 1010.50 1010.39 1010.21 1009.96 1009.73 1009.58 1009.34 1008.99 1008.65 1008.27 1007.91 1007.76 1007.28 1007.31 1007.85 1008.31 1008.88 1009.19 1009.40 1009.76 1009.66 1009.39 1009.28 1009.39 1009.59 1009.82 1010.08 1009.87
1012.90 1012.47 1012.12 1011.74 1011.42 1011.11 1010.82 1010.55 1010.36 1010.05 1009.91 1009.76 1009.59 1009.38 1009.09 1009.02 1008.79 1008.57 1008.32 1008.01 1007.72 1007.51 1007.58 1007.82 1007.92 1008.29 1008.53 1008.82 1009.01 1009.45 1009.65 1009.50 1009.43 1009.21 1009.12 1008.88 1008.73 1008.60
Thickness
5535 5533 5530 5530 5527 5524 5521 5518 5514 5511 5515 5525 5527 5530 5529 5527 5529 5530 5529 5528 5526 5527 5528 5529 5530 5533 5534 5536 5537 5539 5540 5542 5545 5546 5549 5551 5553 5559
5524 5521 5519 5518 5515 5512 5509 5506 5504 5500 5499 5509 5512 5514 5517 5517 5517 5517 5518 5519 5519 5518 5518 5521 5523 5524 5527 5529 5532 5534 5535 5536 5538 5539 5542 5543 5544 5546
5511 5509 5507 5505 5503 5500 5497 5493 5490 5487 5487 5499 5497 5498 5499 5501 5503 5504 5504 5506 5507 5508 5509 5510 5512 5514 5517 5520 5523 5526 5528 5530 5530 5531 5533 5534 5534 5536
5496 5494 5492 5491 5488 5485 5482 5479 5476 5474 5472 5477 5482 5480 5481 5483 5485 5488 5491 5492 5493 5494 5496 5498 5501 5502 5505 5508 5510 5513 5517 5520 5521 5524 5526 5524 5524 5528
5480 5477 5475 5473 5471 5467 5465 5462 5460 5459 5456 5457 5463 5463 5466 5465 5466 5467 5470 5474 5477 5480 5482 5484 5484 5489 5491 5494 5497 5499 5501 5504 5507 5507 5510 5511 5513 5518
5461 5458 5456 5454 5452 5449 5447 5445 5444 5440 5438 5437 5441 5443 5443 5446 5445 5447 5451 5454 5460 5464 5468 5469 5470 5473 5476 5478 5482 5485 5487 5488 5490 5494 5498 5500 5505 5508
5441 5438 5437 5434 5431 5430 5429 5427 5422 5420 5417 5417 5420 5420 5423 5425 5424 5429 5429 5435 5441 5443 5447 5451 5453 5455 5459 5461 5462 5466 5469 5473 5475 5477 5481 5486 5490 5494
5418 5416 5413 5411 5409 5407 5406 5404 5401 5400 5399 5395 5396 5396 5401 5399 5401 5405 5408 5410 5418 5426 5426 5432 5434 5437 5438 5441 5445 5447 5450 5452 5457 5461 5463 5466 5470 5475
5397 5393 5391 5389 5385 5381 5381 5379 5377 5374 5371 5370 5374 5376 5378 5375 5376 5380 5383 5389 5399 5403 5402 5409 5413 5418 5421 5423 5424 5428 5430 5434 5436 5441 5446 5450 5453 5457
5375 5371 5367 5364 5360 5355 5353 5351 5350 5348 5344 5340 5340 5346 5347 5350 5349 5352 5357 5362 5372 5382 5380 5386 5388 5395 5399 5406 5408 5410 5411 5413 5416 5419 5423 5428 5433 5438
5354 5348 5340 5337 5334 5329 5323 5318 5318 5319 5313 5309 5310 5311 5315 5317 5320 5322 5328 5329 5342 5352 5353 5360 5367 5368 5372 5382 5389 5392 5392 5395 5398 5400 5404 5407 5411 5414
5329 5323 5315 5305 5302 5299 5292 5286 5286 5289 5283 5284 5283 5286 5288 5291 5291 5291 5298 5304 5310 5321 5333 5332 5338 5340 5342 5357 5364 5368 5372 5373 5376 5381 5385 5387 5390 5394
5298 5295 5289 5279 5273 5271 5268 5263 5260 5261 5262 5260 5260 5264 5266 5267 5271 5271 5275 5277 5286 5294 5309 5312 5311 5318 5321 5328 5337 5342 5346 5350 5355 5359 5361 5365 5369 5373
5269 5267 5262 5258 5252 5250 5247 5244 5241 5239 5239 5239 5238 5241 5244 5246 5248 5251 5253 5258 5265 5277 5285 5287 5288 5298 5303 5303 5312 5317 5320 5325 5331 5335 5339 5343 5348 5352
5245 5244 5243 5241 5237 5234 5230 5228 5226 5223 5221 5221 5223 5226 5227 5230 5232 5233 5237 5240 5246 5258 5269 5275 5275 5279 5283 5288 5291 5293 5296 5302 5309 5313 5316 5321 5326 5331
5233 5230 5228 5226 5223 5221 5219 5215 5212 5210 5209 5209 5211 5216 5217 5216 5219 5218 5223 5225 5231 5243 5251 5255 5258 5263 5267 5269 5273 5276 5282 5285 5290 5294 5296 5298 5304 5310
5222 5217 5214 5210 5208 5207 5206 5203 5202 5202 5200 5201 5202 5204 5207 5209 5210 5211 5213 5214 5219 5228 5234 5235 5239 5243 5248 5252 5256 5262 5265 5267 5273 5273 5276 5283 5289 5295
5209 5203 5201 5198 5197 5197 5198 5198 5196 5196 5195 5195 5195 5195 5198 5200 5201 5201 5205 5206 5210 5217 5220 5221 5222 5224 5226 5233 5240 5246 5248 5252 5253 5255 5261 5268 5280 5281
5192 5189 5188 5188 5189 5190 5190 5191 5190 5190 5190 5189 5188 5189 5191 5194 5196 5198 5199 5200 5203 5207 5209 5210 5211 5212 5214 5220 5226 5231 5232 5234 5238 5244 5250 5255 5263 5267
5181 5180 5181 5182 5182 5183 5183 5183 5184 5184 5183 5184 5183 5183 5183 5185 5188 5191 5193 5194 5197 5198 5197 5200 5203 5205 5205 5205 5206 5218 5225 5222 5223 5230 5234 5238 5246 5253
5181 5179 5179 5179 5179 5179 5180 5180 5180 5178 5177 5175 5174 5175 5175 5176 5179 5184 5186 5190 5192 5193 5196 5196 5197 5198 5192 5195 5198 5200 5206 5212 5217 5218 5220 5222 5228 5237
5186 5184 5183 5181 5180 5180 5180 5179 5180 5177 5176 5175 5173 5172 5171 5171 5172 5174 5177 5181 5185 5187 5192 5192 5187 5185 5183 5187 5188 5183 5188 5198 5207 5210 5213 5216 5217 5222
5191 5190 5188 5186 5185 5184 5183 5182 5180 5180 5178 5176 5175 5174 5173 5168 5169 5169 5171 5174 5177 5175 5175 5175 5177 5177 5179 5179 5183 5181 5177 5182 5189 5196 5203 5207 5214 5221